[[{"header":{"parameterUnit":"m.s-1","parameterCategory":1,"la1":30.2991,"la2":30.254,"lo1":-89.0895,"lo2":-89.0444,"dy":0.0017,"dx":0.0017,"nx":28,"ny":28,"refTime":"2025-11-25T09:00:00:Z","depth":0,"parameterNumber":2,"parameterNumberName":"U-component_of_WINDS"},"data":[0,0,0,0,0,0,0,0,0,0,0,0,0,0,0,0,0,0,0,0,0,0,0,0,0,0,0,0,0,0,0,0,0,0,0,0,0,0,0,0,0,0,0,0,0,0,0,0,0,0,0,0,0,0,0,0,0,0,0.8475,0.8475,0,0.8459,0.8459,0.8459,0.8447,0.8447,0.8447,0.8447,0.8429,0.8429,0.8429,0,0,0,0,0,0,0,0,0,0,0,0,0,0.8495,0.8495,0.8475,0.8475,0.8475,0.8459,0.8459,0.8459,0.8447,0.8447,0.8447,0.8446,0.8429,0.8429,0.8429,0,0,0,0,0,0,0,0,0,0,0,0,0,0.8484,0.8495,0.8475,0.8467,0.8466,0.8459,0.8459,0.8459,0.8447,0.8447,0.8447,0.8446,0.843,0.8429,0.8429,0.8429,0,0,0.8427,0.8427,0,0,0,0,0,0,0,0,0.8484,0.8483,0.8468,0.8468,0.8466,0.8455,0.846,0.8449,0.8447,0.8454,0.8447,0.8446,0.8438,0.8437,0.8434,0.8428,0.8427,0.8427,0.8427,0.8426,0.8426,0,0,0,0,0,0,0,0.8485,0.8484,0.8469,0.8468,0.8467,0.8464,0.8462,0.8458,0.8447,0.8453,0.8453,0.8451,0.8437,0.8435,0.8434,0.8427,0.8427,0.8426,0.8426,0.8426,0.8421,0.8421,0,0,0,0,0,0,0.8487,0.8484,0.8469,0.8468,0.8475,0.8464,0.8462,0.8459,0.8447,0.8445,0.8451,0.845,0.8436,0.8434,0.8433,0.8433,0.8426,0.8426,0.8426,0.8421,0.8421,0.8421,0,0,0,0,0,0,0.8488,0.8486,0.847,0.8476,0.8474,0.8464,0.846,0.8459,0.8456,0.8445,0.8443,0.845,0.8435,0.8434,0.843,0.8432,0.8426,0.8425,0.842,0.8421,0.8421,0.8432,0,0,0,0,0,0,0.8488,0.8486,0.8486,0.8476,0.8474,0.8467,0.846,0.8458,0.8455,0.8454,0.8444,0.8442,0.8435,0.8431,0.8429,0.8431,0.8425,0.842,0.842,0.8421,0.8431,0.8432,0.8433,0,0,0,0,0,0.8489,0.8489,0.8486,0.8484,0.8473,0.8467,0.8466,0.8458,0.8455,0.8455,0.8448,0.8442,0.8432,0.8431,0.8429,0.843,0.842,0.842,0.8421,0.8431,0.8432,0.8433,0,0,0,0,0,0,0.8499,0.8488,0.8484,0.8481,0.8475,0.8465,0.8465,0.846,0.8454,0.8454,0.8444,0.8442,0.844,0.8435,0.8433,0.843,0.8425,0.8425,0.8433,0.8435,0.8436,0.8437,0.8424,0,0,0,0,0,0.8501,0.8497,0.8488,0.8486,0.8483,0.8475,0.8472,0.8467,0.846,0.8458,0.8451,0.8445,0.844,0.8437,0.8432,0.8431,0.8429,0.8431,0.8432,0.8433,0.8433,0.8433,0.8434,0.8422,0.8422,0.8422,0,0,0.8504,0.8498,0.8496,0.8488,0.8483,0.8479,0.8473,0.8469,0.8467,0.8457,0.8453,0.8448,0.8441,0.8438,0.8437,0.8434,0.8436,0.8434,0.8434,0.8434,0.8433,0.8434,0.8435,0.8423,0.8423,0.8423,0,0,0.8509,0.8504,0.8502,0.8498,0.8491,0.8485,0.8485,0.8476,0.8472,0.8469,0.8462,0.8459,0.8451,0.8446,0.8443,0.8448,0.8442,0.8446,0.8452,0.8452,0.8453,0.8453,0.8455,0.8456,0.8447,0.8447,0.8447,0,0.8514,0.8509,0.8502,0.8499,0.8496,0.8488,0.8487,0.8482,0.8474,0.8472,0.8469,0.846,0.8454,0.8451,0.8453,0.845,0.845,0.8447,0.8453,0.8454,0.8454,0.8456,0.8457,0.8447,0.8447,0.8447,0.8447,0,0.8516,0.8513,0.8513,0.8505,0.8502,0.85,0.8493,0.849,0.8486,0.8481,0.8478,0.8471,0.8465,0.8464,0.8459,0.846,0.8459,0.8455,0.845,0.8456,0.8458,0.8458,0.8448,0.8448,0.8448,0.8448,0,0,0.8525,0.8515,0.8515,0.8512,0.8505,0.8502,0.85,0.8495,0.8493,0.8488,0.8486,0.8481,0.8477,0.8473,0.8468,0.8468,0.8473,0.8464,0.8463,0.8466,0.8474,0.8477,0.8478,0.847,0.847,0.847,0.8475,0,0.8529,0.8525,0.8519,0.8517,0.8514,0.8507,0.8506,0.8501,0.8497,0.8494,0.8489,0.8485,0.848,0.8478,0.8478,0.8472,0.8474,0.8472,0.8468,0.8468,0.8469,0.8479,0.8482,0.8487,0.8476,0.8476,0.8476,0,0.8532,0.8528,0.8526,0.852,0.8518,0.8517,0.8512,0.851,0.8504,0.8501,0.8498,0.8493,0.8491,0.8486,0.8484,0.8482,0.848,0.8478,0.8478,0.8476,0.8472,0.8478,0.8489,0.8489,0.8477,0.8477,0.8477,0,0.854,0.8534,0.8532,0.853,0.8522,0.8521,0.8518,0.8513,0.851,0.8506,0.8505,0.8501,0.8498,0.8495,0.8489,0.8487,0.8487,0.8482,0.8485,0.8485,0.8484,0.8484,0.8495,0.8484,0.8484,0.8484,0.8484,0,0.8544,0.8543,0.8535,0.8534,0.8533,0.8527,0.8526,0.8522,0.8517,0.8516,0.851,0.8508,0.85,0.8498,0.8493,0.8492,0.8491,0.8488,0.8487,0.8489,0.8489,0.8487,0.8486,0.8484,0.8484,0.8484,0.8484,0,0.8551,0.8546,0.8544,0.8537,0.8536,0.8535,0.853,0.8528,0.8524,0.8522,0.8521,0.8515,0.8512,0.8506,0.8501,0.8498,0.8498,0.8495,0.8499,0.8499,0.8501,0.8501,0.851,0.8511,0.85,0.85,0.85,0,0.8554,0.8554,0.8547,0.8546,0.8543,0.8541,0.8539,0.8533,0.8531,0.8526,0.8525,0.8522,0.8519,0.8515,0.851,0.8506,0.8504,0.8507,0.8503,0.8505,0.8504,0.8504,0.8504,0.8508,0.8508,0.8508,0.8508,0,0.856,0.8558,0.8555,0.8552,0.855,0.8547,0.8544,0.8543,0.8536,0.8535,0.8532,0.853,0.8525,0.8522,0.8519,0.8515,0.8511,0.851,0.851,0.8512,0.8514,0.8513,0.8502,0.851,0.8509,0.8509,0.8509,0.8509,0.8565,0.8565,0.8561,0.8558,0.8555,0.8553,0.8552,0.8548,0.8545,0.8542,0.8539,0.8536,0.8532,0.8527,0.8524,0.8522,0.852,0.852,0.852,0.8521,0.8521,0.8515,0.8522,0.8522,0.8522,0.8521,0.8521,0,0.8571,0.8568,0.8566,0.8562,0.8561,0.8557,0.8554,0.8553,0.8551,0.8548,0.8545,0.8543,0.854,0.8535,0.8532,0.8532,0.853,0.8531,0.8531,0.8531,0.8524,0.8524,0.8533,0.8533,0.8533,0.8533,0.8533,0.8533,0.8574,0.8573,0.857,0.8568,0.8565,0.8563,0.8562,0.8559,0.8557,0.8554,0.8552,0.855,0.8546,0.8543,0.8541,0.8539,0.8539,0.8541,0.8539,0.8532,0.8531,0.853,0.853,0.8541,0.8541,0.8546,0.8546,0.8546]},{"header":{"parameterUnit":"m.s-1","parameterCategory":1,"la1":30.2991,"la2":30.254,"lo1":-89.0895,"lo2":-89.0444,"dy":0.0017,"dx":0.0017,"nx":28,"ny":28,"refTime":"2025-11-25T09:00:00:Z","depth":0,"parameterNumber":3,"parameterNumberName":"V-component_of_WINDS"},"data":[0,0,0,0,0,0,0,0,0,0,0,0,0,0,0,0,0,0,0,0,0,0,0,0,0,0,0,0,0,0,0,0,0,0,0,0,0,0,0,0,0,0,0,0,0,0,0,0,0,0,0,0,0,0,0,0,0,0,-6.2003,-6.2005,0,-6.2173,-6.2174,-6.2176,-6.2172,-6.2169,-6.2167,-6.2165,-6.2331,-6.2337,-6.2344,0,0,0,0,0,0,0,0,0,0,0,0,0,-6.1669,-6.1675,-6.2003,-6.2005,-6.2007,-6.2172,-6.2175,-6.2177,-6.2172,-6.2169,-6.2166,-6.2164,-6.2329,-6.2336,-6.2344,0,0,0,0,0,0,0,0,0,0,0,0,0,-6.1824,-6.1678,-6.2002,-6.2025,-6.2029,-6.2172,-6.2175,-6.2177,-6.2173,-6.2169,-6.2166,-6.2162,-6.2326,-6.2336,-6.2345,-6.2475,0,0,-6.2375,-6.238,0,0,0,0,0,0,0,0,-6.1815,-6.1836,-6.2019,-6.2024,-6.2028,-6.2148,-6.2118,-6.2277,-6.2173,-6.2118,-6.2165,-6.2161,-6.2272,-6.2286,-6.2325,-6.2483,-6.249,-6.2376,-6.2382,-6.2386,-6.2389,0,0,0,0,0,0,0,-6.1804,-6.1829,-6.207,-6.2022,-6.2027,-6.2025,-6.2043,-6.2148,-6.2212,-6.2122,-6.2122,-6.2143,-6.2274,-6.2316,-6.2329,-6.2492,-6.2376,-6.2385,-6.2391,-6.2395,-6.2767,-6.2771,0,0,0,0,0,0,-6.179,-6.182,-6.2064,-6.2075,-6.1911,-6.2033,-6.2054,-6.2112,-6.2211,-6.2223,-6.2146,-6.2142,-6.2301,-6.2318,-6.2335,-6.2495,-6.2386,-6.2396,-6.2401,-6.2763,-6.2768,-6.2772,0,0,0,0,0,0,-6.1783,-6.1812,-6.2057,-6.1948,-6.1979,-6.2043,-6.2109,-6.2118,-6.216,-6.2229,-6.2239,-6.2177,-6.2299,-6.2321,-6.2441,-6.2501,-6.24,-6.2409,-6.2759,-6.2765,-6.277,-6.2815,0,0,0,0,0,0,-6.1773,-6.1809,-6.186,-6.1949,-6.1985,-6.2163,-6.2113,-6.2123,-6.2178,-6.2175,-6.2261,-6.2272,-6.2298,-6.2427,-6.2451,-6.2512,-6.2417,-6.2753,-6.2761,-6.2768,-6.2809,-6.2822,-6.2833,0,0,0,0,0,-6.1761,-6.1864,-6.1863,-6.1892,-6.205,-6.2166,-6.2187,-6.2216,-6.2183,-6.2234,-6.2279,-6.2269,-6.249,-6.2439,-6.2467,-6.2532,-6.275,-6.2759,-6.2768,-6.2803,-6.2819,-6.2833,0,0,0,0,0,0,-6.1777,-6.1876,-6.1876,-6.2011,-6.2081,-6.2165,-6.2231,-6.2232,-6.2311,-6.2304,-6.2335,-6.2355,-6.2475,-6.2515,-6.2457,-6.2664,-6.2616,-6.263,-6.2633,-6.2649,-6.2661,-6.2649,-6.2425,0,0,0,0,0,-6.1797,-6.1886,-6.1966,-6.2077,-6.2113,-6.2166,-6.2217,-6.2235,-6.2307,-6.2336,-6.2389,-6.2458,-6.2543,-6.2598,-6.268,-6.2815,-6.2834,-6.2873,-6.2885,-6.2895,-6.2907,-6.2983,-6.3002,-6.2802,-6.2802,-6.2802,0,0,-6.1838,-6.1903,-6.1956,-6.2082,-6.2138,-6.2228,-6.219,-6.2286,-6.2352,-6.2349,-6.2468,-6.2509,-6.2588,-6.2717,-6.2776,-6.2753,-6.2967,-6.2907,-6.2914,-6.2921,-6.2994,-6.3013,-6.303,-6.2808,-6.2807,-6.2806,0,0,-6.1958,-6.2016,-6.2116,-6.2174,-6.2261,-6.2297,-6.2321,-6.2406,-6.2435,-6.2555,-6.2555,-6.2633,-6.2779,-6.2836,-6.2884,-6.3029,-6.3024,-6.3054,-6.3119,-6.3192,-6.3208,-6.3222,-6.3275,-6.3293,-6.3067,-6.3067,-6.3067,0,-6.1997,-6.2134,-6.2166,-6.2264,-6.232,-6.2325,-6.2426,-6.248,-6.2588,-6.2626,-6.26,-6.2785,-6.2838,-6.2981,-6.3017,-6.3055,-6.3083,-6.3044,-6.3203,-6.3218,-6.3232,-6.3282,-6.3302,-6.307,-6.307,-6.3069,-6.3069,0,-6.2178,-6.2273,-6.2343,-6.2451,-6.2515,-6.2613,-6.266,-6.272,-6.2732,-6.277,-6.2892,-6.2957,-6.3053,-6.3088,-6.3099,-6.3233,-6.3217,-6.3197,-6.3149,-6.3253,-6.3302,-6.3321,-6.3075,-6.3073,-6.3072,-6.3072,0,0,-6.2311,-6.2439,-6.2464,-6.2515,-6.2612,-6.2685,-6.2784,-6.2882,-6.2933,-6.3007,-6.3091,-6.3216,-6.3199,-6.3253,-6.3271,-6.3336,-6.3448,-6.3308,-6.331,-6.3333,-6.3601,-6.3616,-6.3638,-6.3446,-6.345,-6.3453,-6.3595,0,-6.2442,-6.2621,-6.2655,-6.281,-6.2898,-6.2906,-6.2992,-6.306,-6.3099,-6.3178,-6.3219,-6.3308,-6.3278,-6.3312,-6.3376,-6.3421,-6.3503,-6.3411,-6.3523,-6.3526,-6.3504,-6.3663,-6.3679,-6.381,-6.3614,-6.3617,-6.3619,0,-6.2619,-6.2702,-6.2867,-6.2956,-6.2994,-6.3071,-6.3164,-6.324,-6.3318,-6.3341,-6.3404,-6.3415,-6.3517,-6.3466,-6.3607,-6.3544,-6.3591,-6.3621,-6.3626,-6.3638,-6.3579,-6.3679,-6.3852,-6.3872,-6.3649,-6.3647,-6.3645,0,-6.2701,-6.2854,-6.2973,-6.3016,-6.3121,-6.3176,-6.3222,-6.3297,-6.3354,-6.3434,-6.3472,-6.3562,-6.3611,-6.368,-6.3715,-6.3674,-6.3854,-6.3805,-6.3875,-6.3875,-6.3913,-6.391,-6.4096,-6.3943,-6.3942,-6.3942,-6.3941,0,-6.2844,-6.2945,-6.3012,-6.3085,-6.3198,-6.3236,-6.3346,-6.3391,-6.3458,-6.3539,-6.3549,-6.3625,-6.3667,-6.3748,-6.3775,-6.3889,-6.391,-6.3931,-6.3938,-6.3931,-6.3929,-6.3963,-6.3954,-6.3947,-6.3946,-6.3945,-6.3944,0,-6.2955,-6.3004,-6.3135,-6.3225,-6.3251,-6.333,-6.3407,-6.3478,-6.3517,-6.362,-6.3646,-6.3706,-6.3803,-6.3845,-6.3962,-6.3981,-6.4111,-6.411,-6.4086,-6.4088,-6.4157,-6.415,-6.4372,-6.4403,-6.4228,-6.423,-6.4231,0,-6.3043,-6.3121,-6.3222,-6.3279,-6.3328,-6.3418,-6.3478,-6.3518,-6.3579,-6.3675,-6.3734,-6.3832,-6.3912,-6.4066,-6.4119,-6.421,-6.4211,-6.4283,-6.4225,-6.4216,-6.4214,-6.4209,-6.4217,-6.4293,-6.4295,-6.4296,-6.4298,0,-6.3195,-6.3217,-6.3303,-6.34,-6.3472,-6.3549,-6.3624,-6.3669,-6.372,-6.3788,-6.3889,-6.3952,-6.4075,-6.4171,-6.4266,-6.4311,-6.4313,-6.4316,-6.4337,-6.4331,-6.4315,-6.4326,-6.4116,-6.431,-6.4309,-6.4308,-6.4307,-6.4307,-6.3298,-6.3369,-6.3452,-6.3549,-6.3611,-6.3682,-6.3754,-6.3804,-6.3889,-6.3994,-6.4012,-6.4119,-6.4196,-6.4324,-6.4373,-6.4457,-6.4439,-6.447,-6.4477,-6.4485,-6.449,-6.4301,-6.4474,-6.4474,-6.4473,-6.4473,-6.4473,0,-6.3452,-6.3506,-6.3595,-6.3703,-6.3779,-6.3778,-6.3861,-6.3925,-6.4021,-6.4094,-6.4174,-6.429,-6.4385,-6.4447,-6.4542,-6.4597,-6.4601,-6.4621,-6.4617,-6.4628,-6.4499,-6.4472,-6.4617,-6.4617,-6.4617,-6.4617,-6.4617,-6.4617,-6.3541,-6.3662,-6.3693,-6.3845,-6.3898,-6.4006,-6.4054,-6.4119,-6.4178,-6.4309,-6.4389,-6.443,-6.4499,-6.46,-6.4686,-6.4702,-6.4737,-6.4758,-6.4773,-6.4652,-6.4637,-6.4622,-6.4597,-6.4765,-6.4766,-6.4895,-6.4896,-6.4897]}]]